Weather History for Milton, FL

Change the Weather History Date:

Monday, December 31, 2012

  Actual Average (KNSE) Record (KNSE)
Temperature  
Mean Temperature 47 °F -  
Max Temperature 60 °F 58 °F 73 °F (1996)
Min Temperature 34 °F 41 °F 30 °F (1997)
Degree Days  
Heating Degree Days 18    
Moisture  
Dew Point 41 °F    
Average Humidity 73    
Maximum Humidity 93    
Minimum Humidity 63    
Precipitation  
Precipitation 0.00 in - - ()
Sea Level Pressure  
Sea Level Pressure 30.25 in    
Wind  
Wind Speed 7 mph (ENE)    
Max Wind Speed 9 mph    
Max Gust Speed -    
Visibility 10 miles    
Events      
Averages and records for this station are not official NWS values.
T = Trace of Precipitation, MM = Missing Value Source: NWS Daily Summary

Daily Weather History Graph

Daily Weather History Graph

Search for Another Location

Airport:

Trip Planner

Search our weather history database for the weather conditions in past years. The results will help you decide how hot, cold, wet, or windy it might be!

Date:

Astronomy

Dec. 31, 2012 Rise Set
Actual Time 6:45 AM CST 4:57 PM CST
Civil Twilight 6:18 AM CST 5:23 PM CST
Nautical Twilight 5:48 AM CST 5:53 PM CST
Astronomical Twilight 5:19 AM CST 6:23 PM CST
Moon 8:12 PM CST (12/31) 8:39 AM CST (12/31)
Length of Visible Light 11h 04m
Length of Day
10h 11m
Waning Gibbous, 90% of the Moon is Illuminated
Dec 31
Waning Gibbous
Jan 4
Last Quarter
Jan 11
New
Jan 18
First Quarter
Jan 26
Full

Hourly Weather History & Observations

Time (CST) Temp. Windchill Dew Point Humidity Pressure Visibility Wind Dir Wind Speed Gust Speed Precip Events Conditions
12:56 AM 35.1 °F 28.6 °F 27.0 °F 72% 30.32 in 10.0 mi ENE 8.1 mph - N/A   Clear
1:56 AM 35.1 °F 29.3 °F 27.0 °F 72% 30.32 in 10.0 mi NE 6.9 mph - N/A   Clear
2:56 AM 34.0 °F 27.2 °F 27.0 °F 75% 30.30 in 10.0 mi ENE 8.1 mph - N/A   Clear
3:56 AM 35.1 °F 27.9 °F 28.0 °F 76% 30.29 in 10.0 mi ENE 9.2 mph - N/A   Clear
4:56 AM 36.0 °F 31.1 °F 28.0 °F 73% 30.31 in 10.0 mi NE 5.8 mph - N/A   Clear
6:56 AM 36.0 °F 31.1 °F 28.9 °F 76% 30.30 in 10.0 mi ENE 5.8 mph - N/A   Partly Cloudy
7:18 AM 37.4 °F 32.1 °F 30.2 °F 75% 30.31 in 10.0 mi East 6.9 mph - N/A   Mostly Cloudy
7:26 AM 39.2 °F 34.2 °F 30.2 °F 70% 30.32 in 10.0 mi ENE 6.9 mph - N/A   Scattered Clouds
7:56 AM 42.1 °F 38.4 °F 33.1 °F 70% 30.30 in 10.0 mi NE 5.8 mph - N/A   Partly Cloudy
8:56 AM 46.0 °F 42.5 °F 36.0 °F 68% 30.32 in 10.0 mi NE 6.9 mph - N/A   Overcast
9:43 AM 48.2 °F - 37.4 °F 66% 30.35 in 10.0 mi ENE 6.9 mph - N/A   Overcast
9:56 AM 48.0 °F - 37.9 °F 68% 30.32 in 10.0 mi ENE 5.8 mph - N/A   Overcast
10:10 AM 48.2 °F - 39.2 °F 71% 30.35 in 10.0 mi NE 5.8 mph - N/A   Overcast
10:56 AM 52.0 °F - 41.0 °F 66% 30.31 in 10.0 mi NNE 4.6 mph - N/A   Overcast
11:27 AM 53.6 °F - 42.8 °F 67% 30.32 in 10.0 mi NNE 5.8 mph - N/A   Overcast
11:56 AM 55.0 °F - 44.1 °F 67% 30.27 in 10.0 mi NE 5.8 mph - N/A   Overcast
12:25 PM 57.2 °F - 44.6 °F 63% 30.28 in 10.0 mi ENE 3.5 mph - N/A   Overcast
12:56 PM 57.9 °F - 46.9 °F 67% 30.22 in 10.0 mi ESE 5.8 mph - N/A   Overcast
1:17 PM 57.2 °F - 46.4 °F 67% 30.24 in 10.0 mi East 3.5 mph - N/A   Overcast
1:56 PM 59.0 °F - 46.9 °F 64% 30.19 in 10.0 mi East 4.6 mph - N/A   Overcast
2:56 PM 60.1 °F - 48.0 °F 64% 30.18 in 10.0 mi ENE 6.9 mph - N/A   Overcast
3:56 PM 59.0 °F - 48.9 °F 69% 30.18 in 10.0 mi NE 3.5 mph - N/A   Overcast
4:56 PM 57.9 °F - 48.9 °F 72% 30.17 in 10.0 mi NE 3.5 mph - N/A   Overcast
5:56 PM 57.0 °F - 48.9 °F 74% 30.18 in 10.0 mi NE 5.8 mph - N/A   Overcast
6:21 PM 57.2 °F - 48.2 °F 72% 30.22 in 10.0 mi NE 5.8 mph - N/A   Overcast
6:31 PM 55.4 °F - 48.2 °F 77% 30.22 in 10.0 mi NNE 5.8 mph - N/A   Overcast
6:45 PM 55.4 °F - 48.2 °F 77% 30.22 in 10.0 mi ENE 6.9 mph - N/A   Overcast
6:56 PM 54.0 °F - 48.0 °F 80% 30.17 in 10.0 mi East 8.1 mph - N/A   Mostly Cloudy
7:56 PM 54.0 °F - 48.0 °F 80% 30.17 in 10.0 mi East 5.8 mph - N/A   Scattered Clouds
8:56 PM 54.0 °F - 48.9 °F 83% 30.15 in 10.0 mi East 6.9 mph - N/A   Scattered Clouds
9:56 PM 53.1 °F - 48.9 °F 86% 30.13 in 10.0 mi SE 5.8 mph - N/A   Clear
10:56 PM 54.0 °F - 51.1 °F 90% 30.10 in 10.0 mi SE 6.9 mph - N/A   Partly Cloudy
11:56 PM 54.0 °F - 52.0 °F 93% 30.09 in 10.0 mi ESE 4.6 mph - N/A   Overcast